******************************************************************************* Revised: April 12, 2021 Mercury 199 / 1 PHYSICAL DATA (updated 2024-Mar-04): Vol. Mean Radius (km) = 2439.4+-0.1 Density (g cm^-3) = 5.427 Mass x10^23 (kg) = 3.302 Volume (x10^10 km^3) = 6.085 Sidereal rot. period = 58.6463 d Sid. rot. rate (rad/s)= 0.00000124001 Mean solar day = 175.9421 d Core radius (km) = ~1600 Geometric Albedo = 0.106 Surface emissivity = 0.77+-0.06 GM (km^3/s^2) = 22031.86855 Equatorial radius, Re = 2440.53 km GM 1-sigma (km^3/s^2) = Mass ratio (Sun/plnt) = 6023682 Mom. of Inertia = 0.33 Equ. gravity m/s^2 = 3.701 Atmos. pressure (bar) = < 5x10^-15 Max. angular diam. = 11.0" Mean Temperature (K) = 440 Visual mag. V(1,0) = -0.42 Obliquity to orbit[1] = 2.11' +/- 0.1' Hill's sphere rad. Rp = 94.4 Sidereal orb. per. = 0.2408467 y Mean Orbit vel. km/s = 47.362 Sidereal orb. per. = 87.969257 d Escape vel. km/s = 4.435 Perihelion Aphelion Mean Solar Constant (W/m^2) 14462 6278 9126 Maximum Planetary IR (W/m^2) 12700 5500 8000 Minimum Planetary IR (W/m^2) 6 6 6 ******************************************************************************* ******************************************************************************* Ephemeris / WWW_USER Fri Dec 12 17:52:16 2025 Pasadena, USA / Horizons ******************************************************************************* Target body name: Mercury Barycenter (199) {source: DE441} Center body name: Sun (10) {source: DE441} Center-site name: BODY CENTER ******************************************************************************* Start time : A.D. 2000-Jan-01 00:00:00.0000 TDB Stop time : A.D. 2000-Jan-02 00:00:00.0000 TDB Step-size : 200 calendar years ******************************************************************************* Center geodetic : 0.0, 0.0, 0.0 {E-lon(deg),Lat(deg),Alt(km)} Center cylindric: 0.0, 0.0, 0.0 {E-lon(deg),Dxy(km),Dz(km)} Center radii : 695700.0, 695700.0, 695700.0 km {Equator_a, b, pole_c} Keplerian GM : 2.9591225740912142E-04 au^3/d^2 Output units : AU-D, deg, Julian Day Number (Tp) Calendar mode : Mixed Julian/Gregorian Output type : GEOMETRIC osculating elements Output format : 10 Reference frame : Ecliptic of J2000.0 ******************************************************************************* JDTDB EC QR IN OM W Tp N MA TA A AD PR ******************************************************************************* $$SOE 2451544.500000000 = A.D. 2000-Jan-01 00:00:00.0000 TDB EC= 2.056302515978038E-01 QR= 3.074991198161343E-01 IN= 7.005014362233553E+00 OM= 4.833053877672862E+01 W = 2.912427943500334E+01 Tp= 2451502.287118776236 N = 4.092345945966383E+00 MA= 1.727497133441682E+02 TA= 1.751155302923815E+02 A = 3.870982252718477E-01 AD= 4.666973307275610E-01 PR= 8.796910250337795E+01 $$EOE ******************************************************************************* TIME Barycentric Dynamical Time ("TDB" or T_eph) output was requested. This continuous coordinate time is equivalent to the relativistic proper time of a clock at rest in a reference frame co-moving with the solar system barycenter but outside the system's gravity well. It is the independent variable in the solar system relativistic equations of motion. TDB runs at a uniform rate of one SI second per second and is independent of irregularities in Earth's rotation. CALENDAR SYSTEM Mixed calendar mode was active such that calendar dates after AD 1582-Oct-15 (if any) are in the modern Gregorian system. Dates prior to 1582-Oct-5 (if any) are in the Julian calendar system, which is automatically extended for dates prior to its adoption on 45-Jan-1 BC. The Julian calendar is useful for matching historical dates. The Gregorian calendar more accurately corresponds to the Earth's orbital motion and seasons. A "Gregorian-only" calendar mode is available if such physical events are the primary interest. REFERENCE FRAME AND COORDINATES Ecliptic at the standard reference epoch Reference epoch: J2000.0 X-Y plane: adopted Earth orbital plane at the reference epoch Note: IAU76 obliquity of 84381.448 arcseconds wrt ICRF X-Y plane X-axis : ICRF Z-axis : perpendicular to the X-Y plane in the directional (+ or -) sense of Earth's north pole at the reference epoch. Symbol meaning [1 au= 149597870.700 km, 1 day= 86400.0 s]: JDTDB Julian Day Number, Barycentric Dynamical Time EC Eccentricity, e QR Periapsis distance, q (au) IN Inclination w.r.t X-Y plane, i (degrees) OM Longitude of Ascending Node, OMEGA, (degrees) W Argument of Perifocus, w (degrees) Tp Time of periapsis (Julian Day Number) N Mean motion, n (degrees/day) MA Mean anomaly, M (degrees) TA True anomaly, nu (degrees) A Semi-major axis, a (au) AD Apoapsis distance (au) PR Sidereal orbit period (day) ABERRATIONS AND CORRECTIONS Geometric osculating elements have NO corrections or aberrations applied. Computations by ... Solar System Dynamics Group, Horizons On-Line Ephemeris System 4800 Oak Grove Drive, Jet Propulsion Laboratory Pasadena, CA 91109 USA General site: https://ssd.jpl.nasa.gov/ Mailing list: https://ssd.jpl.nasa.gov/email_list.html System news : https://ssd.jpl.nasa.gov/horizons/news.html User Guide : https://ssd.jpl.nasa.gov/horizons/manual.html Connect : browser https://ssd.jpl.nasa.gov/horizons/app.html#/x API https://ssd-api.jpl.nasa.gov/doc/horizons.html command-line telnet ssd.jpl.nasa.gov 6775 e-mail/batch https://ssd.jpl.nasa.gov/ftp/ssd/horizons_batch.txt scripts https://ssd.jpl.nasa.gov/ftp/ssd/SCRIPTS Author : Jon.D.Giorgini@jpl.nasa.gov ******************************************************************************* !$$SOF CENTER = '@Sun' COMMAND = '1' OUT_UNITS = 'AU-D' START_TIME = '2000-01-01' STEP_SIZE = '200 years' STOP_TIME = '2000-01-02' TABLE_TYPE = 'ELEMENTS'